User: anonymous   Login
Location: Stoke Bliss
(52.2667°N, 2.5167°W)
Time: 12:40:10
(UTC+00:00)
Language:

Okean O Rocket - Orbit

View from above orbital plane
View from above orbital plane
View from above satellite
View from above satellite

Ground track
Ground track

The orbit data is extracted from the following two-line orbital elements,

1 25861U 99039B   21132.01421042  .00000020  00000-0  10257-4 0  9996
2 25861  98.2058 146.6762 0015626 177.8555 235.9742 14.78637988176317
Epoch (UTC): 12 May 2021 00:20:27
Eccentricity: 0.0015626
inclination: 98.2058°
perigee height: 622 km
apogee height: 644 km
right ascension of ascending node: 146.6762°
argument of perigee: 177.8555°
revolutions per day: 14.78637988
mean anomaly at epoch: 235.9742°
orbit number at epoch: 17631

The dashed part of the orbit path shows where the satellite is in the earth's shadow,  

DLR